Location: Newark
(34.9500°N, 139.9667°E)
Time: 20:44:18
(UTC+00:00)

Vanguard 1 Rocket - Pass Details

Date: 14 December 2019
Orbit: 650 x 4226 km, 34.3° (Epoch: 25 January)

Event Time Altitude Azimuth Distance (km) Brightness Sun altitude
Rises 12:06:36 0° 259° (W) 7,999 12.7 -55.8°
Reaches altitude 10° 12:12:42 10° 260° (W) 6,572 12.1 -57.0°
Enters shadow 12:25:18 44° 259° (W) 3,364 10.2 -59.6°
Maximum altitude 12:31:45 86° 175° (S) 2,155 - -60.8°
Drops below altitude 10° 12:41:02 10° 87° (E) 3,472 - -62.7°
Sets 12:43:15 0° 87° (E) 4,159 - -63.1°
